#timestamp,LO_Frequency,Hit,Temp,Hum 
1479441615.5,286047026.0,N,0.0,0.0
1479441635.4,286047024.0,N,0.0,0.0
1479441655.2,286047023.1,N,0.0,0.0
1479441675.0,286047021.3,N,0.0,0.0
1479441675.9,286047021.3,N,0.0,0.0
1479441695.8,286047021.6,N,0.0,0.0
1479441715.6,286047019.0,N,0.0,0.0
1479441735.5,286047019.8,N,0.0,0.0
1479441755.3,286047020.2,N,0.0,0.0
1479441775.1,286047017.8,N,0.0,0.0
1479441795.9,286047017.9,N,0.0,0.0
1479441815.7,286047016.0,N,0.0,0.0
1479441835.5,286047014.1,N,0.0,0.0
1479441855.4,286047015.6,N,0.0,0.0
1479441875.2,286047012.8,N,0.0,0.0
1479441895.1,286047011.6,N,0.0,0.0
1479441896.0,286047011.6,N,0.0,0.0
1479441915.8,286047009.9,N,0.0,0.0
1479441935.6,286047010.8,N,0.0,0.0
1479441955.5,286047010.3,N,0.0,0.0
1479441975.3,286047008.4,N,0.0,0.0
1479441995.1,286047008.9,N,0.0,0.0
1479442015.9,286047006.1,N,0.0,0.0
1479442035.7,286047006.7,N,0.0,0.0
1479442055.6,286047004.7,N,0.0,0.0
1479442075.4,286047005.7,N,0.0,0.0
1479442095.2,286047005.6,N,0.0,0.0
1479442115.1,286047005.6,N,0.0,0.0
1479442116.0,286047005.6,N,0.0,0.0
1479442135.8,286047004.2,N,0.0,0.0
1479442155.6,286047001.3,N,0.0,0.0
1479442175.5,286047001.6,N,0.0,0.0
1479442195.3,286047001.9,N,0.0,0.0
1479442215.2,286047002.4,N,0.0,0.0
1479442235.9,286047000.1,N,0.0,0.0
1479442255.7,286047000.2,N,0.0,0.0
1479442275.6,286046999.7,N,0.0,0.0
1479442295.4,286047000.4,N,0.0,0.0
1479442315.2,286047000.8,N,0.0,0.0
1479442335.1,286046998.9,N,0.0,0.0
1479442336.0,286046998.9,N,0.0,0.0
1479442355.8,286046999.1,N,0.0,0.0
1479442375.7,286046997.7,N,0.0,0.0
1479442395.5,286046997.9,N,0.0,0.0
1479442415.3,286046995.4,N,0.0,0.0
1479442435.2,286046995.0,N,0.0,0.0
1479442455.0,286046996.3,N,0.0,0.0
1479442455.9,286046996.3,N,0.0,0.0
1479442475.8,286046996.4,N,0.0,0.0
1479442495.6,286046996.3,N,0.0,0.0
1479442515.4,286046995.8,N,0.0,0.0
1479442535.3,286046994.3,N,0.0,0.0
1479442555.1,286046994.7,N,0.0,0.0
1479442575.8,286046992.5,N,0.0,0.0
1479442595.7,286046992.7,N,0.0,0.0
1479442615.5,286046990.6,N,0.0,0.0
1479442635.4,286046991.0,N,0.0,0.0
1479442655.2,286046991.5,N,0.0,0.0
1479442675.0,286046991.1,N,0.0,0.0
1479442675.9,286046991.1,N,0.0,0.0
1479442695.8,286046989.4,N,0.0,0.0
1479442715.6,286046989.2,N,0.0,0.0
1479442735.4,286046988.7,N,0.0,0.0
1479442755.3,286046988.5,N,0.0,0.0
1479442775.1,286046989.9,N,0.0,0.0
1479442795.9,286046987.9,N,0.0,0.0
1479442815.7,286046985.6,N,0.0,0.0
1479442835.5,286046988.4,N,0.0,0.0
1479442855.4,286046986.5,N,0.0,0.0
1479442875.2,286046984.6,N,0.0,0.0
1479442895.0,286046984.4,N,0.0,0.0
1479442896.0,286046984.4,N,0.0,0.0
1479442915.8,286046984.1,N,0.0,0.0
1479442935.6,286046982.1,N,0.0,0.0
1479442955.5,286046982.6,N,0.0,0.0
1479442975.3,286046982.7,N,0.0,0.0
1479442995.1,286046982.7,N,0.0,0.0
1479443015.9,286046980.5,N,0.0,0.0
1479443035.7,286046980.6,N,0.0,0.0
1479443055.5,286046981.2,N,0.0,0.0
1479443075.4,286046983.6,N,0.0,0.0
1479443095.2,286046981.8,N,0.0,0.0
1479443115.1,286046979.8,N,0.0,0.0
1479443116.0,286046979.8,N,0.0,0.0
1479443135.8,286046980.0,N,0.0,0.0
1479443155.6,286046980.0,N,0.0,0.0
1479443175.5,286046980.1,N,0.0,0.0
1479443195.3,286046979.8,N,0.0,0.0
1479443215.2,286046977.4,N,0.0,0.0
1479443235.9,286046979.9,N,0.0,0.0
1479443255.7,286046978.5,N,0.0,0.0
1479443275.6,286046978.7,N,0.0,0.0
1479443295.4,286046976.7,N,0.0,0.0
1479443315.2,286046978.8,N,0.0,0.0
1479443335.1,286046977.0,N,0.0,0.0
1479443336.0,286046977.0,N,0.0,0.0
1479443355.8,286046976.9,N,0.0,0.0
1479443375.7,286046977.0,N,0.0,0.0
1479443395.5,286046976.7,N,0.0,0.0
1479443415.3,286046974.6,N,0.0,0.0
1479443435.2,286046974.2,N,0.0,0.0
1479443455.0,286046974.7,N,0.0,0.0
1479443455.9,286046974.7,N,0.0,0.0
1479443475.7,286046974.7,N,0.0,0.0
1479443495.6,286046975.4,N,0.0,0.0
1479443515.4,286046973.2,N,0.0,0.0
1479443535.3,286046973.9,N,0.0,0.0
1479443555.1,286046973.7,N,0.0,0.0
1479443556.0,286046973.7,N,0.0,0.0
1479443575.8,286046971.7,N,0.0,0.0
1479443595.7,286046971.1,N,0.0,0.0
1479443615.5,286046972.2,N,0.0,0.0
1479443635.3,286046972.1,N,0.0,0.0
1479443655.2,286046969.7,N,0.0,0.0
1479443675.0,286046970.2,N,0.0,0.0
1479443675.9,286046970.2,N,0.0,0.0
1479443695.8,286046970.3,N,0.0,0.0
1479443715.6,286046969.3,N,0.0,0.0
1479443735.4,286046970.1,N,0.0,0.0
1479443755.3,286046970.5,N,0.0,0.0
1479443775.1,286046970.4,N,0.0,0.0
1479443795.9,286046970.8,N,0.0,0.0
1479443815.7,286046968.9,N,0.0,0.0
1479443835.5,286046969.2,N,0.0,0.0
1479443855.4,286046966.4,N,0.0,0.0
1479443875.2,286046967.4,N,0.0,0.0
1479443895.0,286046965.1,N,0.0,0.0
1479443895.9,286046965.1,N,0.0,0.0
1479443915.8,286046965.3,N,0.0,0.0
1479443935.6,286046965.6,N,0.0,0.0
1479443955.5,286046965.3,N,0.0,0.0
1479443975.3,286046966.0,N,0.0,0.0
1479443995.1,286046963.2,N,0.0,0.0
1479444015.9,286046963.9,N,0.0,0.0
1479444035.7,286046963.0,N,0.0,0.0
1479444055.5,286046963.8,N,0.0,0.0
1479444075.4,286046961.7,N,0.0,0.0
1479444095.2,286046961.9,N,0.0,0.0
1479444115.1,286046961.6,N,0.0,0.0
1479444116.0,286046961.6,N,0.0,0.0
1479444135.8,286046962.4,N,0.0,0.0
1479444155.6,286046962.6,N,0.0,0.0
1479444175.5,286046962.7,N,0.0,0.0
1479444195.3,286046962.5,N,0.0,0.0
1479444215.1,286046959.7,N,0.0,0.0
1479444235.9,286046960.4,N,0.0,0.0
1479444255.7,286046961.1,N,0.0,0.0
1479444275.6,286046961.0,N,0.0,0.0
1479444295.4,286046958.3,N,0.0,0.0
1479444315.2,286046959.2,N,0.0,0.0
1479444335.1,286046956.8,N,0.0,0.0
1479444336.0,286046956.8,N,0.0,0.0
1479444355.8,286046957.3,N,0.0,0.0
1479444375.6,286046955.1,N,0.0,0.0
1479444395.5,286046956.4,N,0.0,0.0
1479444415.3,286046956.1,N,0.0,0.0
1479444435.2,286046955.1,N,0.0,0.0
1479444455.9,286046955.8,N,0.0,0.0
1479444475.7,286046953.7,N,0.0,0.0
1479444495.6,286046956.4,N,0.0,0.0
1479444515.4,286046955.7,N,0.0,0.0
1479444535.2,286046956.3,N,0.0,0.0
1479444555.1,286046953.3,N,0.0,0.0
1479444556.0,286046953.3,N,0.0,0.0
1479444575.8,286046953.3,N,0.0,0.0
1479444595.7,286046956.2,N,0.0,0.0
1479444615.5,286046953.8,N,0.0,0.0
1479444635.3,286046953.9,N,0.0,0.0
1479444655.2,286046951.7,N,0.0,0.0
1479444675.0,286046954.4,N,0.0,0.0
1479444675.9,286046954.4,N,0.0,0.0
1479444695.8,286046953.1,N,0.0,0.0
1479444715.6,286046950.1,N,0.0,0.0
1479444735.4,286046950.3,N,0.0,0.0
1479444755.3,286046950.6,N,0.0,0.0
1479444775.1,286046950.2,N,0.0,0.0
1479444776.0,286046950.2,N,0.0,0.0
1479444795.8,286046950.9,N,0.0,0.0
1479444815.7,286046951.1,N,0.0,0.0
1479444835.5,286046951.0,N,0.0,0.0
1479444855.4,286046948.5,N,0.0,0.0
1479444875.2,286046948.7,N,0.0,0.0
1479444895.0,286046948.6,N,0.0,0.0
1479444895.9,286046948.6,N,0.0,0.0
1479444915.8,286046951.4,N,0.0,0.0
1479444935.6,286046949.7,N,0.0,0.0
1479444955.4,286046949.9,N,0.0,0.0
1479444975.3,286046947.3,N,0.0,0.0
1479444995.1,286046949.9,N,0.0,0.0
1479445015.9,286046948.1,N,0.0,0.0
1479445035.7,286046948.2,N,0.0,0.0
1479445055.5,286046948.0,N,0.0,0.0
1479445075.4,286046947.7,N,0.0,0.0
1479445095.2,286046945.4,N,0.0,0.0
1479445115.0,286046948.4,N,0.0,0.0
1479445115.9,286046948.4,N,0.0,0.0
1479445135.8,286046946.6,N,0.0,0.0
1479445155.6,286046945.5,N,0.0,0.0
1479445175.5,286046946.4,N,0.0,0.0
1479445195.3,286046944.0,N,0.0,0.0
